DANISH PIGEON 2018 – 110 KM

  • 09-08-2018 Bordesholm Hot spot nr 2

  • Release Point: Bordesholm
  • Info: we have kept 5 pigeons at home late arrivals.
  • Distance: 110 km
  • Release Time: 09.08.2018 06:30:00 (GMT +2:00)
  • basketed Pigeons: 1139
  • arrived Pigeons: 1035
  • expected Pigeons: 104
Logo of the Loft

09-08-2018 Bordesholm Hot spot nr 2 Result List
1,035 entries total (1 – 500)
Rank Fancier Team Country Pigeon Arrival Speed [m/min] Pigeon Name
1 Team Traj Norway NO-026-18-00992 09.08.2018 07:55:04.27 1293.0350
2 Team Ostsseebad Boltenhagen Germany DV-08902-18-00161 09.08.2018 07:55:19.08 1289.2942
3 Shane Betts United Kingdom GB-18-X-03945 09.08.2018 07:55:19.09 1289.2917
4 Team GPS Netherlands NL-18-4297982 09.08.2018 07:55:21.10 1288.7856
5 Walther Thun Germany DV-01455-18-00149 09.08.2018 07:55:21.81 1288.6070 Sylt Thun 4
6 Theo & Markus Lecke Germany DV-04087-18-57 09.08.2018 07:55:22.24 1288.4988
7 Carl Erik Nielsen Denmark 071-18-00228 09.08.2018 07:55:23.28 1288.2372
8 Harry’s Grandchildren Germany DV-1777-18-500 09.08.2018 07:55:23.64 1288.1467
9 Team Nor-Pol Norway NO-026-18-00745 09.08.2018 07:55:23.65 1288.1442
10 Paul Romkes Netherlands NL-18-4295631 09.08.2018 07:55:25.67 1287.6365 Hiwott
11 Hold 1-2-3 Denmark 070-18-00510 09.08.2018 07:55:25.79 1287.6064 Alfred
12 Bristow Gilbertson United Kingdom GB-18-V-18079 09.08.2018 07:55:26.07 1287.5361
13 Kurt Helgesen Arctic Loft Norway Norway NO-032-18-00202 09.08.2018 07:55:27.28 1287.2322 Arctic wonder what
14 Team EOTS Netherlands NL-18-1432902 09.08.2018 07:55:27.91 1287.0741 Terbo
15 Karl-Heinz-Timo Wagner Germany DV-07768-18-01041 09.08.2018 07:55:27.92 1287.0716
16 Team Tromøy/Geir Erling Birkeland Norway NO-014-18-260 09.08.2018 07:55:31.83 1286.0909 Tromøy 4
17 Team Traj Norway NO-026-18-01015 09.08.2018 07:55:33.35 1285.7101
18 Bjørn Myhra Norway NO-007-18-00139 09.08.2018 07:55:33.79 1285.5999 TRINE
19 Comb. De Leeuw Van Benten Netherlands NL-18-1664483 09.08.2018 07:55:34.76 1285.3571
20 Kristian Gammelgård Denmark 084-18-00733 09.08.2018 07:55:35.40 1285.1969
21 Egon Klitgård Denmark 220-18-00889 09.08.2018 07:55:37.41 1284.6940 Tove
22 Team Adlige Allgaeurer Germany DV-0722-18-462 09.08.2018 07:55:39.74 1284.1116 Betty
23 Fast Pigeons & Ervin Laro Italy IT-18-00816 09.08.2018 07:55:41.76 1283.6072
24 Team Racing Pigeons Jebjerg Denmark 170-18-00268 09.08.2018 07:55:41.83 1283.5897 Tuborg 3
25 Team Tufte-Heggland Norway NOR-080-18-00022 09.08.2018 07:55:42.35 1283.4599 Arbok
26 Team Jørgensen Denmark 030-18-00397 09.08.2018 07:55:43.64 1283.1380
27 Herluf Bennetzen Denmark 071-18-00313 09.08.2018 07:55:45.18 1282.7540
28 Krzysztof Bury Norway NO-080-18-01469 09.08.2018 07:55:47.21 1282.2481
29 Silvercreek Lofts Canada Canada AU-18-SILVERCREEK-56 09.08.2018 07:55:48.33 1281.9691
30 Klitten Denmark 166-18-00281 09.08.2018 07:55:48.79 1281.8546 Klitten 1
31 Team Røstad/Karlsen Norway NO-008-18-00585 09.08.2018 07:55:50.41 1281.4514 SIKKO
32 Masscott United Kingdom GB-18-D-09190 09.08.2018 07:55:50.85 1281.3419 Scarface
33 Y & Villy Petersen Denmark 027-18-08061 09.08.2018 07:55:51.07 1281.2872
34 Silvercreek Lofts Canada Canada AU-18-SILVERCREEK-58 09.08.2018 07:55:52.50 1280.9316
35 Team Røstad/Karlsen Norway NO-008-18-00228 09.08.2018 07:55:53.30 1280.7327 SOKKO
36 Dr. Henk de Weerd pigeons Netherlands NL-18-1167213 09.08.2018 07:55:53.79 1280.6110
37 Jan and Anja Abbing Netherlands NL-18-5152539 09.08.2018 07:55:54.87 1280.3427
38 Jupid-Jung Germany DV-08857-18-28 09.08.2018 07:55:55.63 1280.1539 Andriana
39 Paul Romkes Netherlands NL-18-4295624 09.08.2018 07:55:55.75 1280.1241 Gerda
40 Karl Heinz Lang Germany DV-8596-18-425 09.08.2018 07:55:57.43 1279.7071
41 O.P og sønner Denmark 224-18-00346 09.08.2018 07:55:57.97 1279.5732
42 Verdeyen Francis & Bart Belgium BE-18-2100724 09.08.2018 07:55:58.46 1279.4516
43 Team Herlof Norway 074-18-00588 09.08.2018 07:56:02.33 1278.4925
44 De Wachter Frans Belgium BE-18-6036450 09.08.2018 07:56:03.36 1278.2374 Paul
45 Team Sylt 2000 Germany DV-03460-18-1406 09.08.2018 07:56:04.15 1278.0419 Sylt Groene
46 Team Gourmet Denmark 070-18-00104 09.08.2018 07:56:04.43 1277.9726
47 Aart Vd Brink Netherlands NL-18-1665259 09.08.2018 07:56:05.35 1277.7450
48 Erna Fuschera Germany DV-08345-18-104 09.08.2018 07:56:07.14 1277.3023 Erna Fuschera
49 Beniamin Neag Austria AUS-602-18-113 09.08.2018 07:56:07.66 1277.1738
50 Martin Sævareid Norway NO-032-18-00593 09.08.2018 07:56:09.19 1276.7958 MS-93
51 Bjørn Ove Helgesen Norway NOR-032-18-00127 09.08.2018 07:56:09.66 1276.6797 LUCKY DREAM
52 Torben & Lars Denmark 070-18-00727 09.08.2018 07:56:11.40 1276.2501 den hurtigere
53 Team Nor-Pol Norway NO-026-18-00741 09.08.2018 07:56:11.76 1276.1613
54 Helle og Louis Denmark 046-18-00227 09.08.2018 07:56:13.68 1275.6877 RAKSHA
55 Holger Wittke Denmark 036-18-05138 09.08.2018 07:56:13.76 1275.6680 Cirkeline
56 EMIEL DENYS Belgium BE-18-3018130 09.08.2018 07:56:13.85 1275.6458
57 Harry’s Grandchildren Germany DV-1777-18-477 09.08.2018 07:56:14.60 1275.4609
58 Dr.Ohnesorge Germany DV-03405-18-314 09.08.2018 07:56:15.26 1275.2982
59 Søren Bo Brøbech Denmark 164-18-00323 09.08.2018 07:56:15.71 1275.1874 Christoffer
60 Team Thiriau France 023-18-00610 09.08.2018 07:56:15.88 1275.1455 Platini
61 Team Sylt 2000 Germany DV-06278-18-456 09.08.2018 07:56:16.90 1274.8942 Sylt Fle/Wo 2
62 Familie Soellner Familie Soellner Germany DV-02733-18-1882 09.08.2018 07:56:17.64 1274.7120
63 Dream Team Markussen Denmark 055-18-00362 09.08.2018 07:56:18.02 1274.6185
64 Team Van de Bovenkamp/Jacobs Netherlands NL-18-1664763 09.08.2018 07:56:18.58 1274.4806
65 PM Denmark 070-18-00260 09.08.2018 07:56:18.75 1274.4388
66 Jupid-Jung Germany DV-08857-18-20 09.08.2018 07:56:19.26 1274.3133 Darian
67 Team Nor-Pol Norway NO-026-18-01807 09.08.2018 07:56:21.66 1273.7231
68 Team Henning & Niels Denmark 220-18-01172 09.08.2018 07:56:21.67 1273.7206 Joint Strike Fighter 4
69 Johnny Plath Denmark 240-18-01599 09.08.2018 07:56:22.57 1273.4994
70 Team Ray & S.Veiland Norway NO-026-18-01367 09.08.2018 07:56:24.02 1273.1432
71 KARAKURTPİGEONS Turkey TR-18-027209 09.08.2018 07:56:25.09 1272.8805
72 Tom Melgard Denmark 193-18-00281 09.08.2018 07:56:25.47 1272.7872
73 Team Turteltauben Germany DV-01906-18-00412 09.08.2018 07:56:26.58 1272.5148
74 Team Kegleklubben 1864 Denmark 070-18-00290 09.08.2018 07:56:27.10 1272.3873 Hr. Møller
75 633 Squadron United Kingdom GB-18-H-28099 09.08.2018 07:56:27.55 1272.2769 Hayes
76 Bjørn Ove Helgesen Norway NOR-032-18-00122 09.08.2018 07:56:27.75 1272.2278 DAPI DREAM
77 Michael Hansen Denmark 036-18-05300 09.08.2018 07:56:28.25 1272.1052 DE 5300
78 Walter Smith United Kingdom GB-18-N-10577 09.08.2018 07:56:28.26 1272.1028
79 Ranar Jørgensen Norway N-008-18-00229 09.08.2018 07:56:28.73 1271.9876
80 Shane Betts United Kingdom GB-18-X-03950 09.08.2018 07:56:30.15 1271.6395
81 Team Årets Fund Denmark 224-18-00650 09.08.2018 07:56:30.70 1271.5048 Lille Noe
82 Jupid-Jung Germany DV-08857-18-46 09.08.2018 07:56:33.16 1270.9025 Leano
83 Team Iraq Loft (Hikmat-Daum) Iraq DV-04939-18-508 09.08.2018 07:56:33.17 1270.9000
84 “Wonder Pigeon Team”. Italy POR-18-8008359 09.08.2018 07:56:34.20 1270.6480
85 Anna og Mads Denmark 170-18-00279 09.08.2018 07:56:35.68 1270.2861 Anna
86 Hold 1-2-3 Denmark 070-18-00511 09.08.2018 07:56:35.81 1270.2543 Isabella
87 Hold 1-2-3 Denmark 070-18-00515 09.08.2018 07:56:37.11 1269.9366 Ole
88 Team Evald & Christian Denmark 075-18-02058 09.08.2018 07:56:37.67 1269.7997 Lisa
89 Ragnar Johansen Norway N-006-18-00180 09.08.2018 07:56:37.69 1269.7949 Thormod
90 Walter Griese Germany DV-03590-18-00641 09.08.2018 07:56:38.39 1269.6239
91 Karl Heinz Wichert Germany DV-2618-18-687 09.08.2018 07:56:38.89 1269.5018
92 Andreas Wollenhaupt Germany DV-8197-18-621 09.08.2018 07:56:40.36 1269.1429
93 Brian Clayburn United Kingdom GB-18-N-62711 09.08.2018 07:56:40.89 1269.0136 Blazing Dreams
94 sporting pigeon team Portugal POR-18-8185156 09.08.2018 07:56:45.02 1268.0067
95 Larsen Denmark 068-18-00124 09.08.2018 07:56:45.61 1267.8629 Signe
96 Toncho Metodiev Denmark 071-18-00935 09.08.2018 07:56:45.62 1267.8605
97 Team Blokkungerne Norway N-024-18-00220 09.08.2018 07:56:48.09 1267.2592 Erik
98 Team Vibeke Denmark 070-18-00245 09.08.2018 07:56:48.20 1267.2324 Olie
99 Team Thiriau France 023-18-00607 09.08.2018 07:56:48.65 1267.1230 Pogba
100 Sigurd Torgilsteit Norway NO-026-18-00277 09.08.2018 07:56:49.10 1267.0135 Grumpy Noshow
101 Team Holding Denmark 073-18-05333 09.08.2018 07:56:49.45 1266.9284 GB
102 N+P+3xJ Denmark 117-18-00161 09.08.2018 07:56:50.44 1266.6877 Mane
103 Familie Soellner Familie Soellner Germany DV-02733-18-1888 09.08.2018 07:56:50.69 1266.6269
104 Team H.C Denmark 070-18-00319 09.08.2018 07:56:51.98 1266.3134
105 Bent Andersen Denmark 068-18-00183 09.08.2018 07:56:52.16 1266.2696
106 Roennov – Sport Denmark 175-18-02015 09.08.2018 07:56:52.33 1266.2283
107 Familie Soellner Familie Soellner Germany DV-02733-18-1893 09.08.2018 07:56:52.83 1266.1069
108 Ranar Jørgensen Norway N-008-18-00230 09.08.2018 07:56:52.96 1266.0753
109 Bendt Nielsen Denmark 009-18-01439 09.08.2018 07:56:54.14 1265.7888
110 Team Brdr. Nielsen Denmark 172-18-00441 09.08.2018 07:56:54.49 1265.7038
111 Jos Thon’e Belgium BE-18-5025228 09.08.2018 07:56:55.16 1265.5412
112 Arne Kjærgaard Denmark 227-18-00449 09.08.2018 07:56:58.66 1264.6925
113 Henrik Marklund Sweden SE-37-18-00110 09.08.2018 07:56:59.04 1264.6004 Hulk
114 Dream Team Markussen Denmark 055-18-00364 09.08.2018 07:56:59.86 1264.4017
115 Gerda og Karl Mikkelsen Denmark 075-18-02238 09.08.2018 07:57:00.23 1264.3121 Kajoma
116 Asger og Jette Denmark 154-18-08065 09.08.2018 07:57:00.53 1264.2395
117 Michael Hansen Denmark 036-18-05258 09.08.2018 07:57:00.54 1264.2370 DE 05258
118 Edip Shaban Bulgaria RO-18-117794 09.08.2018 07:57:01.63 1263.9731 Shenel 94
119 Team Vikings Denmark 113-18-00117 09.08.2018 07:57:02.40 1263.7868 Ubbe
120 Team Jørgensen Denmark 033-18-00419 09.08.2018 07:57:02.41 1263.7843 Frk. Gaby
121 Op de Beeck – Baetens Belgium BE-18-6125207 09.08.2018 07:57:02.79 1263.6924
122 Comb. De Leeuw Van Benten Netherlands NL-18-1664481 09.08.2018 07:57:03.85 1263.4360
123 Team Røstad/Karlsen Norway NO-008-18-00320 09.08.2018 07:57:04.83 1263.1990 SAKKO
124 Lars Eikeland Norway N-018-18-00054 09.08.2018 07:57:06.19 1262.8703 Stord 1
125 Familie Joekel Germany DV-07001-18-869 09.08.2018 07:57:06.93 1262.6915
126 Longdells Lofts United Kingdom GB-18-H-05520 09.08.2018 07:57:07.06 1262.6601
127 Team Tromøy/Geir Erling Birkeland Norway NO-014-18-264 09.08.2018 07:57:07.69 1262.5079 Tromøy 6
128 Team Happy Pigeon Denmark 250-18-06655 09.08.2018 07:57:08.47 1262.3196 Madonna
129 Masterloft Norway N-026-18-02318 09.08.2018 07:57:08.93 1262.2085 Nostradamus
130 Gebr. Bolk Netherlands NL-18-4717875 09.08.2018 07:57:09.62 1262.0420
131 The Lever Syndicate United Kingdom GB-18-R-10120 09.08.2018 07:57:10.28 1261.8827
132 Team 100 Haslev Denmark 100-18-01510 09.08.2018 07:57:10.63 1261.7983
133 Team Kegleklubben 1864 Denmark 070-18-00305 09.08.2018 07:57:10.80 1261.7573 Sønderjyden
134 Team Jo Norway NO-026-18-00890 09.08.2018 07:57:12.64 1261.3136 Jo 3
135 Team GPS Netherlands NL-18-1240812 09.08.2018 07:57:13.20 1261.1786
136 Tad T United Kingdom GB-18-L-26102 09.08.2018 07:57:14.88 1260.7739 Favorite Boy
137 Poul Erik Noe Denmark 224-18-00167 09.08.2018 07:57:15.25 1260.6848
138 Mölndal BK.07-Sweden Sweden S-VBF-18-2621 09.08.2018 07:57:15.45 1260.6366 Cheyma
139 Niels Tonnisen Denmark 113-18-00433 09.08.2018 07:57:15.46 1260.6342 433
140 Bent Andersen Denmark 068-18-00185 09.08.2018 07:57:15.92 1260.5235
141 Masterloft Norway N-026-18-02319 09.08.2018 07:57:16.01 1260.5018 Tutankhamon
142 Oliver Heckl Germany DV-08879-18-1307 09.08.2018 07:57:16.13 1260.4729
143 Team Bjerg Denmark 004-18-02144 09.08.2018 07:57:16.49 1260.3863 Mikkel
144 Hylke Van Dijk Netherlands NL-18-1423136 09.08.2018 07:57:16.68 1260.3405
145 Team Nor-Pol Norway NO-026-18-01826 09.08.2018 07:57:17.52 1260.1384
146 Jef De Wilder Belgium BE-18-6032124 09.08.2018 07:57:17.89 1260.0494
147 Team Turteltauben Germany DV-06143-18-00260 09.08.2018 07:57:18.08 1260.0037
148 Asger og Jette Denmark 154-18-08069 09.08.2018 07:57:18.76 1259.8401
149 Mölndal BK.07-Sweden Sweden S-07-18-451 09.08.2018 07:57:19.77 1259.5973 Staffan
150 Kristian Gammelgård Denmark 084-18-00731 09.08.2018 07:57:21.32 1259.2248
151 Niels J. Paulin Denmark 063-18-09266 09.08.2018 07:57:24.45 1258.4732
152 Stefan Degiacinto Netherlands NL-18-1815142 09.08.2018 07:57:24.70 1258.4133
153 Jupid-Jung Germany DV-08857-18-55 09.08.2018 07:57:25.96 1258.1110 Phineas
154 Vagn Mortensen Denmark 164-18-00335 09.08.2018 07:57:26.48 1257.9863 HURTIG CARL
155 Familie Joekel Germany DV-07001-18-932 09.08.2018 07:57:26.57 1257.9647
156 The Boys From Hardinxveld Netherlands NL-18-5174758 09.08.2018 07:57:26.98 1257.8664 “BLUE DAPI PIET”
157 Team Kegleklubben 1864 Denmark 070-18-00311 09.08.2018 07:57:27.18 1257.8185 P. Boisen
158 Team Arne og Rune Norway NO-026-18-01645 09.08.2018 07:57:27.81 1257.6675
159 Bjørn Ove Helgesen Norway NOR-032-18-00141 09.08.2018 07:57:28.09 1257.6004 TOBY PLAZE 141
160 Team Håkon og Jan Norway NO-006-18-00106 09.08.2018 07:57:28.30 1257.5501
161 Team 140 Denmark 140-18-00301 09.08.2018 07:57:28.55 1257.4902 Dino
162 Carl Erik Nielsen Denmark 071-18-00209 09.08.2018 07:57:28.97 1257.3895
163 Marquart & Söhne Germany DV-09999-18-00210 09.08.2018 07:57:29.16 1257.3440
164 Ole Nielsen. Denmark 225-18-03165 09.08.2018 07:57:29.46 1257.2722
165 Niels Clemann Denmark 233-18-00223 09.08.2018 07:57:29.68 1257.2195
166 KARAKURTPİGEONS Turkey TR-18-027282 09.08.2018 07:57:29.77 1257.1979
167 Hans Peter Errath Denmark 225-18-03105 09.08.2018 07:57:30.13 1257.1117
168 Niels Tonnisen Denmark 113-18-00430 09.08.2018 07:57:30.61 1256.9968 430
169 Evald Christensen Denmark 036-18-05021 09.08.2018 07:57:30.62 1256.9944
170 TEAM V&V HAUGESUND Norway N-017-18-00627 09.08.2018 07:57:30.76 1256.9609 Goggen 2
171 Team Morsø Denmark 075-18-02275 09.08.2018 07:57:31.38 1256.8125 Kim
172 Team Vikings Denmark 250-18-06706 09.08.2018 07:57:32.19 1256.6187 Ivar
173 Gebr. Bolk Netherlands NL-18-4717869 09.08.2018 07:57:32.85 1256.4608
174 Dek Twente Netherlands NL-18-1515662 09.08.2018 07:57:33.60 1256.2814 Layla 17
175 Winkie Pigeons Spain ES-18-144324 09.08.2018 07:57:34.32 1256.1093
176 Dream Team Markussen Denmark 055-18-00352 09.08.2018 07:57:34.79 1255.9969
177 Walter Griese Germany DV-03590-18-00645 09.08.2018 07:57:34.91 1255.9682
178 Tim Macken Team 2 United States BE-18-6065758 09.08.2018 07:57:35.68 1255.7842
179 Kurt Helgesen Arctic Loft Norway Norway NO-032-18-00205 09.08.2018 07:57:35.69 1255.7818 Arctic Apollo22
180 Team Rheinair Germany DV-04713-18-816 09.08.2018 07:57:35.88 1255.7364 Fuerteventura
181 Sigurd Torgilsteit Norway NO-026-18-00319 09.08.2018 07:57:37.08 1255.4498 Grumpy backup
182 Bart & Nance van Oeckel Belgium BE-18-6058312 09.08.2018 07:57:38.55 1255.0988
183 Team FCK Denmark 075-18-01749 09.08.2018 07:57:39.04 1254.9819 Christian
184 Team Tordenbrag Denmark 071-18-00626 09.08.2018 07:57:39.57 1254.8554 Hurtigere end postnord
185 Rolf Helge Aspen Norway NO-016-18-00126 09.08.2018 07:57:40.27 1254.6884
186 Emeralds & Diamonds Dynasty Northern Ireland GB-18-V-12801 09.08.2018 07:57:40.87 1254.5454 Sapphire Dynasty
187 Karl Heinz Wichert Germany DV-2618-18-667 09.08.2018 07:57:41.76 1254.3332
188 The Garden Gnomes United Kingdom GB-18-N-60157 09.08.2018 07:57:42.88 1254.0662 Harry
189 Team Nor-Pol Norway NO-026-18-00744 09.08.2018 07:57:43.14 1254.0043
190 Team H.C Denmark 070-18-00191 09.08.2018 07:57:44.70 1253.6327
191 Arne Knudsen Norway NO-008-18-00306 09.08.2018 07:57:45.20 1253.5136
192 Niels J. Paulin Denmark 063-18-09204 09.08.2018 07:57:46.29 1253.2542
193 Rasserne Denmark 093-18-01026 09.08.2018 07:57:47.88 1252.8759
194 Johnny Plath Denmark 240-18-01546 09.08.2018 07:57:48.04 1252.8379
195 Team Bjerg Denmark 004-18-02143 09.08.2018 07:57:48.43 1252.7451
196 Tim Macken Team 1 United States BE-18-6065759 09.08.2018 07:57:48.54 1252.7190
197 Sveinar Kringlebotten Norway NO-032-18-00404 09.08.2018 07:57:51.34 1252.0536 Håkon
198 TEAM V&V HAUGESUND Norway N-017-18-00652 09.08.2018 07:57:51.58 1251.9966 JIV 2
199 Team Jørgensen Denmark 030-18-00398 09.08.2018 07:57:52.71 1251.7282
200 Team Kløppel Denmark 166-18-00093 09.08.2018 07:57:53.62 1251.5122
201 pricewater house revision Denmark 070-18-00284 09.08.2018 07:57:54.11 1251.3960
202 Team Lilian Denmark 165-18-00161 09.08.2018 07:57:55.19 1251.1398
203 N+P+3xJ Denmark 117-18-00032 09.08.2018 07:57:55.26 1251.1232
204 The Boys From Hardinxveld Netherlands NL-18-5131088 09.08.2018 07:57:56.28 1250.8813
205 Krzysztof Bury Norway NO-080-18-01465 09.08.2018 07:57:57.08 1250.6917
206 Team Adlige Allgaeurer Germany DV-05445-18-250 09.08.2018 07:57:58.21 1250.4239 sitting bull
207 Christian Mikkelsen Denmark 075-18-01760 09.08.2018 07:57:58.96 1250.2463 Mikkel
208 Team Arne og Rune Norway NO-026-18-01648 09.08.2018 07:57:59.80 1250.0474
209 Mölndal BK.07-Sweden Sweden S-07-18-443 09.08.2018 07:58:00.03 1249.9929 Michael-2
210 Anders Brøbech Denmark 073-18-05437 09.08.2018 07:58:00.47 1249.8887
211 Team Nicolaisen Denmark 207-18-00836 09.08.2018 07:58:00.93 1249.7799 Almstrup 36
212 Eigil Jensen Denmark 193-18-00360 09.08.2018 07:58:01.07 1249.7467
213 Hans E. Pedersen Denmark 127-18-00197 09.08.2018 07:58:01.50 1249.6450
214 Team Lincs United Kingdom GB-18-X-48239 09.08.2018 07:58:01.70 1249.5977
215 Team OS Norway N-019-18-00162 09.08.2018 07:58:01.71 1249.5953 Gjerde 3
216 Haggenmüller-Scharp Germany DV-04116-18-608 09.08.2018 07:58:02.18 1249.4841 gerki 2
217 2 X Henry Denmark 087-18-00004 09.08.2018 07:58:02.19 1249.4817
218 Team Holding Denmark 073-18-05612 09.08.2018 07:58:02.28 1249.4605
219 Dirk Gebert Norway NO-015-18-187 09.08.2018 07:58:02.74 1249.3517
220 K.B. Sørensen Denmark 237-18-02596 09.08.2018 07:58:03.95 1249.0656
221 Jan Kania Denmark 038-18-5226 09.08.2018 07:58:04.84 1248.8552
222 Lind / Thomsen-Petersen Denmark 240-18-01432 09.08.2018 07:58:05.19 1248.7725 Jette
223 Team Ray & S.Veiland Norway NO-026-18-01368 09.08.2018 07:58:05.72 1248.6473
224 Fast Pigeons & Ervin Laro Italy IT-18-411414 09.08.2018 07:58:06.24 1248.5245
225 sporting pigeon team Portugal POR-18-8459194 09.08.2018 07:58:07.73 1248.1727
226 Team Lolholm Denmark 066-18-00097 09.08.2018 07:58:08.34 1248.0287
227 Bjarne Jørgensen Denmark 066-18-00447 09.08.2018 07:58:08.59 1247.9697
228 De Wachter Frans Belgium BE-18-6036455 09.08.2018 07:58:08.70 1247.9437 Jeanine
229 Team Gourmet Denmark 070-18-00268 09.08.2018 07:58:09.76 1247.6937
230 Bjørn Myhra Norway NO-007-18-00129 09.08.2018 07:58:10.96 1247.4107 PÅL
231 Preben + Hanne Low Denmark 071-18-00879 09.08.2018 07:58:12.01 1247.1632 Isabela
232 Heinz Hansen Germany DV-07648-18-309 09.08.2018 07:58:12.42 1247.0666 Sylt Hansen 2
233 Team GPS Netherlands NL-18-1388530 09.08.2018 07:58:12.76 1246.9864
234 EMIEL DENYS Belgium BE-18-3018098 09.08.2018 07:58:13.15 1246.8946
235 Hold 1-2-3 Denmark 070-18-00508 09.08.2018 07:58:13.76 1246.7509 Stinus
236 Paul Romkes Netherlands NL-18-4295622 09.08.2018 07:58:13.88 1246.7226 Adrie
237 Team Claus & Ulrik Denmark 242-18-03119 09.08.2018 07:58:14.22 1246.6426
238 Fast Pigeons & Ervin Laro Italy IT-18-00818 09.08.2018 07:58:15.20 1246.4118
239 Dr.Ohnesorge Germany DV-03405-18-323 09.08.2018 07:58:15.21 1246.4095
240 Carl Erik Nielsen Denmark 071-18-00207 09.08.2018 07:58:15.60 1246.3177
241 Edip Shaban Bulgaria BG-18-044402 09.08.2018 07:58:15.92 1246.2424 Brolga 02
242 Jan Pedersen Denmark 216-18-00165 09.08.2018 07:58:17.62 1245.8425 BOOMERANG
243 Peter Espersen Denmark 151-18-00516 09.08.2018 07:58:18.71 1245.5862
244 MURRAY AND MILLS United Kingdom GB-18-L-00882 09.08.2018 07:58:19.16 1245.4804 Lily
245 Team Nor-Pol Norway NO-026-18-01812 09.08.2018 07:58:20.80 1245.0951
246 Team OK Denmark 077-18-00616 09.08.2018 07:58:21.85 1244.8485 KC. 1
247 The Boys From Hardinxveld Netherlands NL-18-1113262 09.08.2018 07:58:22.10 1244.7898
248 TEAM IKO & EDO Sweden S-10-18-0209 09.08.2018 07:58:22.29 1244.7452 Edin
249 Tage Graversen Denmark 172-18-00033 09.08.2018 07:58:25.00 1244.1093
250 Walther Thun Germany DV-01455-18-00092 09.08.2018 07:58:25.38 1244.0202 Sylt Thun 1
251 Jef De Wilder Belgium BE-18-6254104 09.08.2018 07:58:26.75 1243.6991
252 Team GPS Netherlands NL-18-4297981 09.08.2018 07:58:26.92 1243.6592
253 Eigil Jensen Denmark 193-18-00359 09.08.2018 07:58:27.85 1243.4413
254 Team Nor-Pol Norway NO-026-18-00747 09.08.2018 07:58:27.94 1243.4202
255 Nissen Denmark 240-18-01725 09.08.2018 07:58:28.36 1243.3219 Berit
256 Team Derby Sevilla Spain NL-18-1324936 09.08.2018 07:58:28.80 1243.2188
257 Bjørn Ove Helgesen Norway NOR-032-18-00118 09.08.2018 07:58:29.78 1242.9894 THEA
258 Brian Clayburn United Kingdom GB-18-N-62712 09.08.2018 07:58:30.04 1242.9285 Junior Fantasy
259 Tandem in Memoriam Spain ESP-18-251126 09.08.2018 07:58:30.23 1242.8840
260 Dirk Gebert Norway NO-015-18-194 09.08.2018 07:58:30.32 1242.8630
261 Haggenmüller-Scharp Germany DV-02741-18-018 09.08.2018 07:58:30.86 1242.7366
262 Christian Mikkelsen Denmark 075-18-01754 09.08.2018 07:58:30.88 1242.7319 Jensen
263 Hans E. Pedersen Denmark 127-18-00180 09.08.2018 07:58:31.55 1242.5751
264 ZG Helios Yu Tao & Hübner & Gehrken Germany DV-4195-18-709 09.08.2018 07:58:32.17 1242.4301
265 Anders Brøbech Denmark 073-18-05326 09.08.2018 07:58:32.18 1242.4278
266 Marcel Sangers & Chantal Vredeveld Netherlands NL-18-1632896 09.08.2018 07:58:32.29 1242.4021 Home Sick
267 Winkie Pigeons Spain ES-18-144471 09.08.2018 07:58:33.30 1242.1659
268 Herman Beverdam Netherlands NL-18-1569634 09.08.2018 07:58:33.96 1242.0116
269 Sveinar Kringlebotten Norway NO-032-18-00411 09.08.2018 07:58:34.69 1241.8410 Stian
270 Team OK Denmark 077-18-00617 09.08.2018 07:58:34.89 1241.7943 KC. 2
271 Rene De Munter Belgium BE-18-6147580 09.08.2018 07:58:36.17 1241.4953
272 Bengt Ask Sweden S-55-18-00320 09.08.2018 07:58:36.44 1241.4322
273 Martinsen Denmark 073-18-05488 09.08.2018 07:58:38.49 1240.9537
274 Team Henning & Niels Denmark 220-18-01171 09.08.2018 07:58:38.79 1240.8837 Joint Strike Fighter 3
275 Herluf Bennetzen Denmark 071-18-00327 09.08.2018 07:58:40.15 1240.5665
276 Team Doris Denmark 063-18-09289 09.08.2018 07:58:40.27 1240.5385
277 N+P+3xJ Denmark 117-18-00221 09.08.2018 07:58:40.97 1240.3753
278 MIK Denmark 075-18-01646 09.08.2018 07:58:41.08 1240.3497 Morten
279 Team Happy Pigeon Denmark 250-18-06625 09.08.2018 07:58:41.46 1240.2611
280 Marquart & Söhne Germany DV-09999-18-00260 09.08.2018 07:58:41.47 1240.2588
281 Team Happy Pigeon Denmark 250-18-06645 09.08.2018 07:58:41.75 1240.1935 Medina
282 Niels J. Paulin Denmark 063-18-09221 09.08.2018 07:58:42.03 1240.1283
283 Niels J. Paulin Denmark 063-18-09280 09.08.2018 07:58:42.88 1239.9303
284 Mia Kristine Karlsen Norway NO-008-18-00574 09.08.2018 07:58:43.10 1239.8790 SVARTEN
285 sporting pigeon team Portugal POR-18-8458070 09.08.2018 07:58:43.11 1239.8767
286 Le Team Roquefort Denmark 073-18-05340 09.08.2018 07:58:43.39 1239.8115
287 Feviks Eventyr Norway NO-014-18-192 09.08.2018 07:58:43.97 1239.6764 Eventyr
288 Team Preben-Bo-Lars Team Preben-Bo-Lars Denmark 068-18-00045 09.08.2018 07:58:44.36 1239.5856 Smukke Preben
289 Team GAJOL Denmark 075-18-01742 09.08.2018 07:58:44.51 1239.5507 Gajol 1
290 Team Jo Norway NO-026-18-00889 09.08.2018 07:58:44.83 1239.4762 Jo 4
291 Alter Uwe Germany DV-05630-18-01055 09.08.2018 07:58:45.25 1239.3784
292 Dr.Ohnesorge Germany DV-03405-18-326 09.08.2018 07:58:45.26 1239.3761
293 Team Rheinair Germany DV-04713-18-801 09.08.2018 07:58:46.24 1239.1481 vibi et orbi
294 Team Racing Pigeons Jebjerg Denmark 170-18-00285 09.08.2018 07:58:46.36 1239.1201
295 Ole Johansen Denmark 128-18-04122 09.08.2018 07:58:46.37 1239.1178 Skipper
296 TOP NICE Denmark 013-18-00311 09.08.2018 07:58:46.70 1239.0411 MOTOR MILLE
297 Knudsen/Korreborg Denmark 233-18-00409 09.08.2018 07:58:47.01 1238.9690
298 Team Løkken Denmark 217-18-00163 09.08.2018 07:58:48.80 1238.5528 STARFIRE
299 Thorkil Thomsen Denmark 070-18-00025 09.08.2018 07:58:48.92 1238.5249
300 Team FCK Denmark 075-18-01443 09.08.2018 07:58:49.09 1238.4854 Kent
301 Winkie Pigeons Spain ES-18-144461 09.08.2018 07:58:49.33 1238.4296
302 Tom & Lars Corneliussen Norway NO-002-18-0168 09.08.2018 07:58:49.69 1238.3459 IG-88
303 Karl Heinz Wichert Germany DV-2618-18-676 09.08.2018 07:58:49.99 1238.2762
304 Bjørn Myhra Norway NO-007-18-00138 09.08.2018 07:58:50.21 1238.2251 PER
305 Karin & John Denmark 075-18-02249 09.08.2018 07:58:50.79 1238.0904 Malik
306 The Boys From Hardinxveld Netherlands NL-18-1113261 09.08.2018 07:58:52.37 1237.7236
307 Team Bjerg Denmark 004-18-02146 09.08.2018 07:58:52.84 1237.6145
308 Krzysztof Bury Norway NO-080-18-01468 09.08.2018 07:58:53.01 1237.5750
309 Mat. Schoordijk Netherlands NL-18-1060312 09.08.2018 07:58:53.87 1237.3755
310 Dek Twente Netherlands NL-18-1515118 09.08.2018 07:58:54.43 1237.2456 Sophie 2
311 Team 100 Haslev Denmark 100-18-01316 09.08.2018 07:58:54.44 1237.2433
312 Team Rheinair Germany DV-04713-18-840 09.08.2018 07:58:55.04 1237.1041 bi-turbo
313 Herman Beverdam Netherlands NL-18-1569635 09.08.2018 07:58:55.50 1236.9975
314 Bjørn Myhra Norway NO-007-18-00143 09.08.2018 07:58:57.97 1236.4251 NILLE
315 Norwegian TURBO Norway NO-026-18-874 09.08.2018 07:58:59.05 1236.1750 Mojo 1
316 Team Derby Sevilla Spain NL-18-1324931 09.08.2018 07:58:59.07 1236.1703
317 Krzysztof Bury Norway NO-080-18-01461 09.08.2018 07:58:59.24 1236.1310
318 MURRAY AND MILLS United Kingdom GB-18-Z-81004 09.08.2018 07:58:59.32 1236.1125 Jasmine
319 Hardy Avebring Sweden S-009-18-00169 09.08.2018 07:59:00.82 1235.7653 GT
320 Alter Uwe Germany DV-05630-18-01043 09.08.2018 07:59:01.17 1235.6843
321 Team Vibeke Denmark 070-18-00247 09.08.2018 07:59:01.19 1235.6797 Tom
322 Paul Romkes Netherlands NL-18-4295636 09.08.2018 07:59:01.34 1235.6450 Trudie 2
323 Team Kegleklubben 1864 Denmark 070-18-00321 09.08.2018 07:59:02.94 1235.2750 Cimbria
324 Gr. 7 af NBF Norway NO-008-18-00319 09.08.2018 07:59:03.79 1235.0785 Johnny
325 Tad T United Kingdom GB-18-L-26120 09.08.2018 07:59:03.94 1235.0438 Daytona
326 Ronny Menten Belgium BE-18-2040273 09.08.2018 07:59:05.08 1234.7804
327 Herman Beverdam Netherlands NL-18-1569650 09.08.2018 07:59:05.53 1234.6764
328 Team Gourmet Denmark 070-18-00186 09.08.2018 07:59:05.82 1234.6095
329 Emeralds & Diamonds Dynasty Northern Ireland GB-18-V-12822 09.08.2018 07:59:06.17 1234.5286 Diamond Dynasty
330 Dickmann-Stroetges Netherlands NL-18-1272913 09.08.2018 07:59:06.79 1234.3855
331 Goran Trailovic Sweden S-009-18-00203 09.08.2018 07:59:07.35 1234.2562
332 Team Ullits / Brevduehuset Denmark 126-18-01858 09.08.2018 07:59:07.52 1234.2170
333 Karl Heinz Wichert Germany DV-2618-18-659 09.08.2018 07:59:07.88 1234.1339
334 Team Kegleklubben 1864 Denmark 073-18-05341 09.08.2018 07:59:08.19 1234.0624
335 Harry’s Grandchildren Germany DV-1777-18-484 09.08.2018 07:59:08.99 1233.8778
336 Team GPS Netherlands NL-18-4297964 09.08.2018 07:59:09.10 1233.8524
337 Beyers Racing team Iluma Belgium BE-18-5069797 09.08.2018 07:59:09.53 1233.7532
338 Team OS Norway N-019-18-00428 09.08.2018 07:59:09.75 1233.7025
339 Familie Joekel Germany DV-07001-18-927 09.08.2018 07:59:11.18 1233.3728
340 Gr. 7 af NBF Norway NO-008-18-00322 09.08.2018 07:59:11.41 1233.3198 Br. Karsen
341 Team Sylt 2000 Germany DV-02082-18-190 09.08.2018 07:59:12.74 1233.0134 Sylt Werner/Heun 5
342 Dream Team Markussen Denmark 055-18-00340 09.08.2018 07:59:12.75 1233.0111
343 Familie Joekel Germany DV-07001-18-930 09.08.2018 07:59:13.21 1232.9051
344 2 X Henry Denmark 087-18-00035 09.08.2018 07:59:13.32 1232.8798
345 Team Femhøje Denmark 217-18-00128 09.08.2018 07:59:13.83 1232.7623
346 Tim Macken Team 2 United States BE-18-6249234 09.08.2018 07:59:14.14 1232.6910
347 PM Denmark 073-18-05615 09.08.2018 07:59:14.84 1232.5298
348 Team Chr. Petersen og Søn Denmark 140-18-00024 09.08.2018 07:59:15.12 1232.4654
349 Michael Hansen Denmark 036-18-05298 09.08.2018 07:59:15.59 1232.3572 DE 5298
350 Oliver Heckl Germany DV-08879-18-1331 09.08.2018 07:59:16.38 1232.1755
351 Jensen & Sørensen Denmark 070-18-00567 09.08.2018 07:59:16.63 1232.1180 Sørensen
352 Bo Iversen Denmark 070-18-00271 09.08.2018 07:59:17.82 1231.8443
353 Gino Clicque Belgium BE-18-3003386 09.08.2018 07:59:18.23 1231.7500
354 Team Traj Norway NO-026-18-02162 09.08.2018 07:59:18.34 1231.7248 Liam
355 O.P og sønner Denmark 224-18-00368 09.08.2018 07:59:18.44 1231.7018
356 MURRAY AND MILLS United Kingdom GB-18-A-05807 09.08.2018 07:59:19.49 1231.4605 Floyd
357 Mölndal BK.07-Sweden Sweden S-09-18-00210 09.08.2018 07:59:19.63 1231.4283 Messi
358 Jaap Mazee Netherlands NL-18-1485151 09.08.2018 07:59:19.74 1231.4030 Jaap 6
359 Janusszc Drozdowski Denmark PL-0323-18-00730 09.08.2018 07:59:19.84 1231.3800
360 Winkie Pigeons Spain ES-18-144460 09.08.2018 07:59:20.17 1231.3042
361 Gino Clicque Belgium BE-18-3003406 09.08.2018 07:59:20.56 1231.2146
362 Arne Knudsen Norway NO-008-18-00311 09.08.2018 07:59:21.54 1230.9896
363 COMB. Luisman-Veltink Netherlands NL-18-1461019 09.08.2018 07:59:21.63 1230.9689
364 Bjørn Ove Helgesen Norway NOR-032-18-00124 09.08.2018 07:59:21.98 1230.8886 RAKET 124
365 Herman Beverdam Netherlands NL-18-1568735 09.08.2018 07:59:23.16 1230.6178
366 Team Chr. Petersen og Søn Denmark 207-18-00570 09.08.2018 07:59:24.01 1230.4228
367 the dream pigeon company Belgium BE-18-6200904 09.08.2018 07:59:25.14 1230.1636
368 Norwegian TURBO Norway NO-026-18-876 09.08.2018 07:59:26.07 1229.9504 Mojo 2
369 Herman Beverdam Netherlands NL-18-1568736 09.08.2018 07:59:26.24 1229.9114
370 Team Traj Norway NO-026-18-02158 09.08.2018 07:59:26.56 1229.8381 Silver
371 Niels Jørgen Ullits Denmark 182-18-00222 09.08.2018 07:59:28.03 1229.5013
372 TEAM IKO & EDO Sweden S-10-18-0208 09.08.2018 07:59:29.24 1229.2242 Kevin
373 Hold 1-2-3 Denmark 070-18-00506 09.08.2018 07:59:30.03 1229.0434 Magnus
374 Theo & Markus Lecke Germany DV-04087-18-44 09.08.2018 07:59:30.30 1228.9816
375 Emeralds & Diamonds Dynasty Northern Ireland GB-18-V-12813 09.08.2018 07:59:32.68 1228.4372 Amber Dynasty
376 Karl Heinz Wichert Germany DV-2618-18-700 09.08.2018 07:59:33.16 1228.3275
377 Dream Team Markussen Denmark 055-18-00344 09.08.2018 07:59:33.36 1228.2817
378 Marlis Schlüter Germany DV-01906-18-00276 09.08.2018 07:59:34.40 1228.0441
379 Theo & Markus Lecke Germany DV-04087-18-48 09.08.2018 07:59:34.52 1228.0166
380 Hein Van Dam Netherlands NL-18-1652649 09.08.2018 07:59:34.70 1227.9755 Gerard
381 Paul Romkes Netherlands NL-18-4295632 09.08.2018 07:59:36.02 1227.6740 Carina
382 Team Gourmet Denmark 070-18-00156 09.08.2018 07:59:36.11 1227.6535
383 Norwegian TURBO Norway NO-026-18-339 09.08.2018 07:59:36.22 1227.6283 Oseberg
384 Rudy Jacobsen Denmark 075-18-01240 09.08.2018 07:59:37.41 1227.3567
385 Haggenmüller-Scharp Germany DV-02741-18-006 09.08.2018 07:59:37.73 1227.2836 timojet
386 Karl-Heinz-Timo Wagner Germany DV-07768-18-01046 09.08.2018 07:59:37.84 1227.2585
387 Jef De Wilder Belgium BE-18-6254103 09.08.2018 07:59:38.29 1227.1558
388 N+P+3xJ Denmark 117-18-00253 09.08.2018 07:59:38.41 1227.1285
389 Team Nor-Pol Norway NO-026-18-01810 09.08.2018 07:59:38.57 1227.0920
390 VIKATO Denmark 172-18-00111 09.08.2018 07:59:39.32 1226.9209
391 Team Røstad/Karlsen Norway NO-008-18-00310 09.08.2018 07:59:40.21 1226.7179 SALLO
392 Bedrich Mach Sweden SE-18-88-247 09.08.2018 07:59:40.42 1226.6700
393 Team GPS Netherlands NL-18-4297967 09.08.2018 07:59:41.10 1226.5150
394 Tim Macken Team 1 United States BE-18-6065731 09.08.2018 07:59:42.20 1226.2644
395 Familie Joekel Germany DV-07001-18-908 09.08.2018 07:59:42.98 1226.0867
396 Michael Hansen Denmark 036-18-05317 09.08.2018 07:59:44.29 1225.7884 DE 5317
397 J og K. Sørensen Denmark 086-18-01228 09.08.2018 07:59:44.30 1225.7861
398 Team Jebjerg Denmark 170-18-00387 09.08.2018 07:59:45.01 1225.6245
399 Holger Wittke Denmark 036-18-05156 09.08.2018 07:59:45.19 1225.5835 Katja
400 Hok M. Reijnen Netherlands BE-18-6246602 09.08.2018 07:59:46.46 1225.2945
401 Orla Kærgaard Denmark 140-18-00146 09.08.2018 07:59:48.23 1224.8920
402 Tom & Lars Corneliussen Norway NO-002-18-0167 09.08.2018 07:59:48.24 1224.8898 Boba Fett
403 Team Arne og Rune Norway NO-026-18-01641 09.08.2018 07:59:48.99 1224.7193
404 Team Derby Sevilla Spain ES-18-182033 09.08.2018 07:59:49.67 1224.5648
405 Holger Wittke Denmark 036-18-05148 09.08.2018 07:59:49.98 1224.4943 Timo
406 Beniamin Neag Austria AUS-602-18-115 09.08.2018 07:59:50.26 1224.4307
407 Arne Knudsen Norway NO-008-18-00302 09.08.2018 07:59:51.02 1224.2581
408 Henrik Christiansen Denmark 164-18-00486 09.08.2018 07:59:51.11 1224.2377
409 Team Van de Bovenkamp/Jacobs Netherlands NL-18-1665542 09.08.2018 07:59:51.70 1224.1037
410 Haggenmüller-Scharp Germany DV-04116-18-512 09.08.2018 07:59:51.71 1224.1014 gaba 2
411 Dr. Henk de Weerd pigeons Netherlands NL-18-1167226 09.08.2018 07:59:52.53 1223.9153
412 Roziers Jelle Belgium BE-18-6034207 09.08.2018 07:59:52.97 1223.8154
413 Team Myreng Norway NO-004-18-00074 09.08.2018 07:59:52.98 1223.8132 Myreng-gubben
414 Team Brdr. Nielsen Denmark 172-18-00429 09.08.2018 07:59:53.52 1223.6907
415 Team Traj Norway NO-026-18-02152 09.08.2018 07:59:54.51 1223.4661 White Wings
416 Team Rheinair Germany DV-04713-18-194 09.08.2018 07:59:54.71 1223.4207 Mandeartz
417 Jørgen Greve Denmark 070-18-00095 09.08.2018 07:59:55.62 1223.2144 SIGNE
418 Team Drammen & Omegn brevdueforening Norway NO-080-18-01029 09.08.2018 07:59:55.96 1223.1373 Artur 1
419 Team Holmegaard Norway NO-026-18-1955 09.08.2018 07:59:56.20 1223.0829
420 Team Van de Bovenkamp/Jacobs Netherlands NL-18-1664757 09.08.2018 07:59:56.47 1223.0217
421 Team Lilian Denmark 165-18-00162 09.08.2018 07:59:57.74 1222.7340
422 Team Derby Sevilla Spain ES-18-182015 09.08.2018 07:59:57.75 1222.7317
423 Rolf E. Sunde Norway NO-016-18-00350 09.08.2018 07:59:57.86 1222.7068 Felix
424 Tom Melgard Denmark 193-18-00276 09.08.2018 07:59:57.99 1222.6773
425 John Engel Denmark 070-18-00575 09.08.2018 07:59:58.08 1222.6569 Engel 1
426 Edip Shaban Bulgaria RO-18-117798 09.08.2018 07:59:58.28 1222.6116 Shabi 98
427 Jaap Mazee Netherlands NL-18-1485109 09.08.2018 08:00:00.49 1222.1113 Jaap 3
428 Lulian Duica Romania RO-18-016830 09.08.2018 08:00:00.93 1222.0118
429 Roennov – Sport Denmark 175-18-02008 09.08.2018 08:00:01.03 1221.9891
430 Team Jo Norway NO-026-18-00862 09.08.2018 08:00:01.05 1221.9846 Jo 2
431 Frank Sørensen Denmark 224-18-00253 09.08.2018 08:00:01.90 1221.7923 Naya
432 Ole Johansen Denmark 128-18-04116 09.08.2018 08:00:02.30 1221.7019 Lene
433 Helle og Jens Pedersen Denmark 076-18-00958 09.08.2018 08:00:02.50 1221.6566 NOAH
434 Walther Thun Germany DV-01455-18-00148 09.08.2018 08:00:02.67 1221.6182 Sylt Thun 3
435 Torben Mortensen Denmark 250-18-06801 09.08.2018 08:00:03.39 1221.4554
436 Nissen Denmark 240-18-01720 09.08.2018 08:00:03.50 1221.4306 Vibevej
437 The Lever Syndicate United Kingdom GB-18-R-10103 09.08.2018 08:00:04.26 1221.2588
438 Team Sylt 2000 Germany DV-02082-18-174 09.08.2018 08:00:04.73 1221.1526 Sylt Werner/Heun 2
439 Team Blokkungerne Norway N-024-18-00211 09.08.2018 08:00:05.65 1220.9448 Knut
440 Norwegian TURBO Norway NO-026-18-866 09.08.2018 08:00:07.35 1220.5609 Mojo 5
441 J og K. Sørensen Denmark 086-18-01230 09.08.2018 08:00:07.48 1220.5316
442 Karl Heinz Wichert Germany DV-2618-18-703 09.08.2018 08:00:09.24 1220.1344
443 Team WAZ Germany DV-09225-18-00554 09.08.2018 08:00:09.72 1220.0262
444 Bjørn Ove Helgesen Norway NOR-032-18-00131 09.08.2018 08:00:10.04 1219.9540 DREVSJØ 131
445 Silvercreek Lofts Canada Canada AU-18-SILVERCREEK-57 09.08.2018 08:00:10.49 1219.8525
446 Team Pepsi Denmark 075-18-01511 09.08.2018 08:00:10.81 1219.7804 Max
447 Team Sylt 2000 Germany DV-03801-18-202 09.08.2018 08:00:11.32 1219.6654 Sylt Hallmann
448 Team Modena Master Denmark 232-18-00211 09.08.2018 08:00:12.37 1219.4288
449 Karl Heinz Wichert Germany DV-2618-18-702 09.08.2018 08:00:13.98 1219.0662
450 Team Denmark Belgiums Best Belgium 070-18-00280 09.08.2018 08:00:14.41 1218.9694 Muscle power 2
451 Pfoh/Eichert Germany DV-04762-18-420 09.08.2018 08:00:15.94 1218.6250
452 EMIEL DENYS-QIU QIAO ZHEN China BE-18-3018109 09.08.2018 08:00:16.59 1218.4788
453 Arild Helle Norway NO-024-18-00499 09.08.2018 08:00:17.17 1218.3483 HELLERASKEN
454 De Wachter Frans Belgium BE-18-6036440 09.08.2018 08:00:17.56 1218.2606 AN
455 Gerard Koopman Netherlands NL-18-1455553 09.08.2018 08:00:18.38 1218.0763
456 Poul Erik Hansen Denmark 027-18-08844 09.08.2018 08:00:18.68 1218.0088
457 Dr.Ohnesorge Germany DV-03405-18-317 09.08.2018 08:00:19.05 1217.9257
458 VIKATO Denmark 172-18-00313 09.08.2018 08:00:19.15 1217.9032
459 O.P og sønner Denmark 224-18-00349 09.08.2018 08:00:19.69 1217.7818
460 TEAM NIKKEL 1, 2, 3, 4. Norway NO-013-18-00051 09.08.2018 08:00:20.32 1217.6403
461 Familie Soellner Familie Soellner Germany DV-02733-18-1813 09.08.2018 08:00:21.22 1217.4381
462 Bjarne Jørgensen Denmark 066-18-00453 09.08.2018 08:00:21.51 1217.3730 Lotto
463 Team Bad Boys Germany Germany DV-06460-18-608 09.08.2018 08:00:22.68 1217.1104
464 Team Holding Denmark 073-18-05610 09.08.2018 08:00:23.67 1216.8882 BRINK 09
465 Team Doris Denmark 063-18-09294 09.08.2018 08:00:24.59 1216.6818
466 Niels J. Paulin Denmark 063-18-09243 09.08.2018 08:00:24.85 1216.6235
467 Familie Soellner Familie Soellner Germany DV-02733-18-1855 09.08.2018 08:00:26.07 1216.3500
468 Vanhee A&M Belgium BE-18-3108254 09.08.2018 08:00:26.41 1216.2737
469 EMIEL DENYS-QIU QIAO ZHEN China BE-18-3018139 09.08.2018 08:00:26.65 1216.2200
470 The Garden Gnomes United Kingdom GB-18-N-14079 09.08.2018 08:00:27.49 1216.0317 Tom
471 Team Adlige Allgaeurer Germany DV-05445-18-268 09.08.2018 08:00:28.01 1215.9152 nosel wind
472 Helle og Louis Denmark 046-18-00235 09.08.2018 08:00:28.02 1215.9130 RAMA
473 Gino Clicque Belgium BE-18-3003405 09.08.2018 08:00:28.14 1215.8861
474 Team Jebjerg Denmark 170-18-00081 09.08.2018 08:00:28.68 1215.7652 Fælles
475 Team Blokkungerne Norway N-024-18-00209 09.08.2018 08:00:28.89 1215.7181 Påi
476 Team Drammen & Omegn brevdueforening Norway NO-080-18-01026 09.08.2018 08:00:31.12 1215.2190 Wojtek 2
477 Gr. 7 af NBF Norway NO-008-18-00327 09.08.2018 08:00:31.42 1215.1518 Yngvar
478 Karin & John Denmark 075-18-02239 09.08.2018 08:00:31.63 1215.1049 Percy
479 Team Doris Denmark 180-18-00769 09.08.2018 08:00:32.35 1214.9438
480 Kris & John Notenboom Belgium BE-18-5066295 09.08.2018 08:00:33.78 1214.6241
481 Scheinker-Flick Germany DV-01882-18-188 09.08.2018 08:00:34.07 1214.5593 Sylt Hanno 2
482 Jesper Hansen Denmark 073-18-05398 09.08.2018 08:00:34.14 1214.5436 Line
483 Svend Aage Lauridsen Denmark 111-18-00626 09.08.2018 08:00:35.06 1214.3380 Melanie
484 Team Ray & S.Veiland Norway NO-026-18-01366 09.08.2018 08:00:37.36 1213.8244
485 Ionut Silviu Ghiviriga Denmark 170-18-00148 09.08.2018 08:00:38.08 1213.6636
486 Gino Clicque Belgium BE-18-3003377 09.08.2018 08:00:39.15 1213.4249
487 Karin & John Denmark 075-18-02246 09.08.2018 08:00:39.39 1213.3714 Birthe
488 Team Modena Master Denmark 232-18-00201 09.08.2018 08:00:39.49 1213.3490
489 sporting pigeon team Portugal POR-18-8457721 09.08.2018 08:00:42.49 1212.6802
490 Sveinar Kringlebotten Norway NO-032-18-00402 09.08.2018 08:00:42.61 1212.6535 Kjelli
491 Jørgen Greve Denmark 070-18-00097 09.08.2018 08:00:43.32 1212.4953 SOFIA
492 Michael Hansen Denmark 036-18-05295 09.08.2018 08:00:43.34 1212.4909 DE 5295
493 Marlis Schlüter Germany DV-01906-18-00290 09.08.2018 08:00:43.70 1212.4107
494 BURY MAREK Poland PL-0239-18-5341 09.08.2018 08:00:44.79 1212.1680
495 “Wonder Pigeon Team”. Italy IT-18-365937 09.08.2018 08:00:45.38 1212.0366
496 Brian Clayburn United Kingdom GB-18-N-62798 09.08.2018 08:00:48.20 1211.4093 Broken Spear
497 N+P+3xJ Denmark 117-18-00037 09.08.2018 08:00:48.40 1211.3648
498 Kåre Skoftby Norway NO-008-18-00314 09.08.2018 08:00:49.96 1211.0181
499 EMIEL DENYS Belgium BE-18-3018467 09.08.2018 08:00:50.22 1210.9603
500 Lauge M. Bak Denmark 066-18-00716 09.08.2018 08:00:50.64 1210.8670

Bir Cevap Yazın

This site uses Akismet to reduce spam. Learn how your comment data is processed.

%d blogcu bunu beğendi: